TimeEDT,TemperatureF,Dew PointF,Humidity,Sea Level PressureIn,VisibilityMPH,Wind Direction,Wind SpeedMPH,Gust SpeedMPH,PrecipitationIn,Events,Conditions,WindDirDegrees,DateUTC
12:53 AM,59.0,57.9,96,30.14,10.0,Calm,Calm,-,N/A,,Clear,0,2013-06-20 04:53:00
1:53 AM,59.0,57.0,93,30.14,10.0,Calm,Calm,-,N/A,,Clear,0,2013-06-20 05:53:00
2:53 AM,57.9,57.0,97,30.14,10.0,Calm,Calm,-,N/A,,Clear,0,2013-06-20 06:53:00
3:53 AM,55.9,55.9,100,30.15,10.0,Calm,Calm,-,N/A,,Clear,0,2013-06-20 07:53:00
4:09 AM,57.2,57.2,100,30.15,2.5,Calm,Calm,-,N/A,,Clear,0,2013-06-20 08:09:00
4:17 AM,55.4,55.4,100,30.16,10.0,Calm,Calm,-,N/A,,Clear,0,2013-06-20 08:17:00
4:53 AM,57.0,57.0,100,30.15,10.0,Calm,Calm,-,N/A,,Clear,0,2013-06-20 08:53:00
5:53 AM,55.0,55.0,100,30.17,4.0,Calm,Calm,-,N/A,,Clear,0,2013-06-20 09:53:00
6:53 AM,57.9,57.0,97,30.19,10.0,Calm,Calm,-,N/A,,Clear,0,2013-06-20 10:53:00
7:03 AM,57.2,57.2,100,30.20,10.0,Calm,Calm,-,N/A,,Partly Cloudy,0,2013-06-20 11:03:00
7:53 AM,62.1,59.0,90,30.20,10.0,Calm,Calm,-,N/A,,Clear,0,2013-06-20 11:53:00
8:53 AM,66.0,61.0,84,30.21,10.0,Calm,Calm,-,N/A,,Clear,0,2013-06-20 12:53:00
9:53 AM,72.0,63.0,73,30.21,9.0,Calm,Calm,-,0.00,,Clear,0,2013-06-20 13:53:00
10:53 AM,77.0,63.0,62,30.21,10.0,SW,5.8,-,N/A,,Clear,220,2013-06-20 14:53:00
11:53 AM,79.0,61.0,54,30.21,10.0,Variable,4.6,-,N/A,,Clear,0,2013-06-20 15:53:00
12:53 PM,81.0,59.0,47,30.19,10.0,Calm,Calm,-,N/A,,Partly Cloudy,0,2013-06-20 16:53:00
1:53 PM,82.9,61.0,47,30.19,10.0,WSW,6.9,-,N/A,,Partly Cloudy,240,2013-06-20 17:53:00
2:53 PM,82.9,59.0,44,30.18,10.0,Calm,Calm,-,N/A,,Partly Cloudy,0,2013-06-20 18:53:00
3:53 PM,82.9,59.0,44,30.17,10.0,South,3.5,-,N/A,,Partly Cloudy,170,2013-06-20 19:53:00
4:53 PM,86.0,59.0,40,30.17,10.0,North,3.5,-,N/A,,Partly Cloudy,10,2013-06-20 20:53:00
5:53 PM,84.0,55.9,38,30.15,10.0,Calm,Calm,-,N/A,,Scattered Clouds,0,2013-06-20 21:53:00
6:53 PM,82.9,59.0,44,30.15,10.0,Calm,Calm,-,N/A,,Partly Cloudy,0,2013-06-20 22:53:00
7:53 PM,81.0,57.9,45,30.14,10.0,Calm,Calm,-,N/A,,Clear,0,2013-06-20 23:53:00
8:53 PM,71.1,64.0,78,30.15,10.0,SE,3.5,-,N/A,,Clear,130,2013-06-21 00:53:00
9:53 PM,69.1,60.1,73,30.16,10.0,Calm,Calm,-,N/A,,Clear,0,2013-06-21 01:53:00
10:53 PM,66.0,61.0,84,30.17,10.0,Calm,Calm,-,N/A,,Clear,0,2013-06-21 02:53:00
11:53 PM,63.0,60.1,90,30.19,10.0,Calm,Calm,-,N/A,,Clear,0,2013-06-21 03:53:00